YAOGAN-30 K (43170 NORAD) Tracking and Keplerian Element Data

This shows tracking and keplerian element data for the satellite.

Feedback or suggestion? Click here.




ElementValue
Catalog43170
NameYAOGAN-30 K
Epoch Orbit434
Epoch Day54.5158003
Epoch Year2018
RAAN10.0308
Inclination35.0001
Eccentricity0.0005744
Argument of Perigee56.8263
Mean Anonmoly303.3
Mean Motion14.89465603
Decay Rate2.21E-06
L11 43170U 18011B 18054.51580030 .00000221 00000-0 25587-4 0 9992
L22 43170 35.0001 10.0308 0005744 56.8263 303.3000 14.89465603 4344

Live tracking and technical data element details for YAOGAN-30 K (NORAD 43170). YAOGAN-30 K can be tracked NOW for your location showing map with azimuth and elevation plus other details from your city location.

Track the satellite on the map from your city or location and see movement details for azimuth, elevation, latitude, longitude, range, height, and movement on the map or in text.







IsCatalogInMostPopularTable: catalog: 43170, numindb: 115
Update: records affected: 1



GetName: 43170 YAOGAN-30 K

Hit Count: updated at: Mon, 19 Nov 2018 14:07:56 GMT